Weather History for KBTM - October, 2011

Change the Weather History Date:

Wednesday, October 26, 2011

  Actual Average Record
Temperature  
Mean Temperature 30 °F 37 °F  
Max Temperature 42 °F 51 °F 75 °F (1944)
Min Temperature 17 °F 24 °F 9 °F (2002)
Degree Days  
Heating Degree Days 35 28  
Month to date heating degree days 526 605  
Since 1 July heating degree days 960 1226  
Cooling Degree Days 0 0  
Month to date cooling degree days 0 0  
Year to date cooling degree days 48 81  
Moisture  
Dew Point 16 °F    
Average Humidity 59    
Maximum Humidity 92    
Minimum Humidity 25    
Precipitation  
Precipitation 0.00 in 0.02 in 0.40 in (1925)
Month to date precipitation 0.72 0.68  
Year to date precipitation 11.29 11.56  
Sea Level Pressure  
Sea Level Pressure 30.30 in    
Wind  
Wind Speed 2 mph (WSW)    
Max Wind Speed 10 mph    
Max Gust Speed 14 mph    
Visibility 7 miles    
Events Fog    
T = Trace of Precipitation, MM = Missing Value Source: NWS Daily Summary

Daily Weather History Graph

Daily Weather History Graph

Search for Another Location

Airport or City:

Trip Planner

Search our weather history database for the weather conditions in past years. The results will help you decide how hot, cold, wet, or windy it might be!

Date:

Astronomy

Oct. 26, 2011 Rise Set
Actual Time 8:01 AM MDT 6:25 PM MDT
Civil Twilight 7:30 AM MDT 6:56 PM MDT
Nautical Twilight 6:55 AM MDT 7:31 PM MDT
Astronomical Twilight 6:21 AM MDT 8:05 PM MDT
Moon 7:57 AM MDT (10/26) 6:06 PM MDT (10/26)
Length of Visible Light 11h 25m
Length of Day
10h 23m
Waning Crescent, 0% of the Moon is Illuminated
Oct 26
Waning Crescent
Oct 26
New
Nov 2
First Quarter
Nov 10
Full
Nov 18
Last Quarter

Hourly Weather History & Observations

Time (MDT) Temp. Windchill Dew Point Humidity Pressure Visibility Wind Dir Wind Speed Gust Speed Precip Events Conditions
12:53 AM 21.9 °F - 19.0 °F 89% 30.43 in 10.0 mi Calm Calm - N/A   Clear
1:53 AM 21.0 °F 16.2 °F 18.0 °F 88% 30.43 in 10.0 mi WSW 3.5 mph - N/A   Mostly Cloudy
2:53 AM 21.0 °F - 18.0 °F 88% 30.43 in 10.0 mi Calm Calm - N/A   Mostly Cloudy
3:53 AM 21.0 °F - 18.0 °F 88% 30.42 in 10.0 mi Calm Calm - N/A   Overcast
4:53 AM 19.4 °F 14.3 °F 17.6 °F 93% 30.31 in 10.0 mi ESE 3.5 mph - N/A   Partly Cloudy
5:32 AM 17.6 °F 10.7 °F 14.0 °F 86% 30.31 in 10.0 mi SSE 4.6 mph - N/A   Mostly Cloudy
5:53 AM 17.6 °F 9.3 °F 14.0 °F 86% 30.30 in 10.0 mi SSE 5.8 mph - N/A   Mostly Cloudy
6:05 AM 17.6 °F 12.3 °F 14.0 °F 86% 30.30 in 10.0 mi South 3.5 mph - N/A   Mostly Cloudy
6:53 AM 17.6 °F - 14.0 °F 86% 30.31 in 10.0 mi Calm Calm - N/A   Overcast
7:16 AM 17.6 °F - 15.8 °F 93% 30.31 in 10.0 mi Calm Calm - N/A   Overcast
8:33 AM 19.4 °F - 17.6 °F 93% 30.32 in 1.5 mi Calm Calm - N/A   Overcast
8:42 AM 19.4 °F - 17.6 °F 93% 30.32 in 0.5 mi Calm Calm - N/A Fog Light Freezing Fog
8:53 AM 19.4 °F - 17.6 °F 93% 30.33 in 0.5 mi Calm Calm - N/A Fog Light Freezing Fog
9:53 AM 19.0 °F - 18.0 °F 96% 30.48 in 0.5 mi Calm Calm - N/A Fog Light Freezing Fog
10:27 AM 21.2 °F 16.4 °F 19.4 °F 93% 30.30 in 2.0 mi NE 3.5 mph - N/A   Overcast
10:36 AM 19.4 °F - 19.4 °F 100% 30.30 in 0.8 mi Calm Calm - N/A   Overcast
10:50 AM 21.2 °F - 19.4 °F 93% 30.29 in 1.0 mi Calm Calm - N/A   Overcast
10:53 AM 21.0 °F - 19.9 °F 96% 30.46 in 1.0 mi Calm Calm - N/A   Overcast
11:00 AM 21.2 °F - 19.4 °F 93% 30.29 in 0.8 mi Calm Calm - N/A   Overcast
11:07 AM 21.2 °F - 19.4 °F 93% 30.29 in 1.5 mi Calm Calm - N/A   Overcast
11:20 AM 21.2 °F - 21.2 °F 100% 30.28 in 3.0 mi Calm Calm - N/A   Overcast
11:46 AM 24.8 °F - 21.2 °F 86% 30.28 in 10.0 mi Calm Calm - N/A   Scattered Clouds
11:53 AM 26.1 °F 20.5 °F 21.9 °F 84% 30.42 in 10.0 mi NNW 4.6 mph - N/A   Partly Cloudy
12:53 PM 34.0 °F - 17.1 °F 50% 30.36 in 10.0 mi Calm Calm - N/A   Clear
1:53 PM 37.4 °F - 14.0 °F 38% 30.21 in 10.0 mi Calm Calm - N/A   Clear
2:53 PM 39.0 °F - 12.0 °F 33% 30.27 in 10.0 mi Calm Calm - N/A   Clear
3:53 PM 41.0 °F 35.8 °F 9.0 °F 27% 30.22 in 10.0 mi WNW 8.1 mph - N/A   Clear
4:53 PM 41.0 °F 37.1 °F 8.1 °F 26% 30.21 in 10.0 mi WSW 5.8 mph - N/A   Clear
5:53 PM 39.0 °F 35.7 °F 9.0 °F 29% 30.22 in 10.0 mi WSW 4.6 mph - N/A   Clear
6:53 PM 37.0 °F 33.3 °F 10.0 °F 33% 30.21 in 10.0 mi WSW 4.6 mph - N/A   Clear
7:53 PM 37.0 °F 34.5 °F 10.9 °F 34% 30.21 in 10.0 mi West 3.5 mph - N/A   Mostly Cloudy
8:53 PM 37.0 °F 34.5 °F 10.0 °F 33% 30.21 in 10.0 mi West 3.5 mph - N/A   Scattered Clouds
9:53 PM 34.0 °F 31.0 °F 14.0 °F 44% 30.21 in 10.0 mi NNE 3.5 mph - N/A   Mostly Cloudy
10:53 PM 35.1 °F - 15.1 °F 44% 30.21 in 10.0 mi Calm Calm - N/A   Overcast
11:53 PM 34.0 °F - 18.0 °F 52% 30.19 in 10.0 mi Calm Calm - N/A   Overcast